Moab, UT

7:28 AM MDT on October 23, 2019 (GMT -0600)
Canyonlands

Weather History for KCNY - August, 2019

Change the Weather History Date:

Friday, August 9, 2019

  Actual Average Record
Temperature  
Mean Temperature 78 °F 79 °F  
Max Temperature 92 °F 94 °F 110 °F (1990)
Min Temperature 64 °F 64 °F 50 °F (1934)
Degree Days  
Heating Degree Days 0 0  
Month to date heating degree days 0 0  
Since 1 June heating degree days 23 17  
Since 1 July heating degree days 0 0  
Cooling Degree Days 13 14  
Month to date cooling degree days 157 132  
Year to date cooling degree days 930 925  
Since 1 June cooling degree days 915 861  
Growing Degree Days 28 (Base 50)    
Moisture  
Dew Point 46 °F    
Average Humidity 36    
Maximum Humidity 58    
Minimum Humidity 14    
Precipitation  
Precipitation T in 0.03 in 0.30 in (1976)
Month to date precipitation 0.02 0.25  
Year to date precipitation 6.17 4.79  
Sea Level Pressure  
Sea Level Pressure 29.83 in    
Wind  
Wind Speed 5 mph (SW)    
Max Wind Speed 17 mph    
Max Gust Speed 22 mph    
Visibility 10 miles    
Events      
T = Trace of Precipitation, MM = Missing Value Source: NWS Daily Summary

Daily Weather History Graph

Daily Weather History Graph

Search for Another Location

Airport or City:

Astronomy

Aug. 09, 2019 Rise Set
Actual Time 6:27 AM MDT 8:21 PM MDT
Civil Twilight 5:58 AM MDT 8:49 PM MDT
Nautical Twilight 5:23 AM MDT 9:24 PM MDT
Astronomical Twilight 4:45 AM MDT 10:02 PM MDT
Moon 4:04 PM MDT (8/9) 1:27 AM MDT (8/9)
Length of Visible Light 14h 51m
Length of Day
13h 53m
Waxing Gibbous, 71% of the Moon is Illuminated
Aug 9
Waxing Gibbous
Aug 15
Full
Aug 23
Last Quarter
Aug 30
New
Sep 5
First Quarter

Hourly Weather History & Observations

Time (MDT) Temp. Dew Point Humidity Pressure Visibility Wind Dir Wind Speed Gust Speed Precip Events Conditions
12:53 AM 73.0 °F 51.1 °F 46% 29.83 in 10.0 mi WSW 8.1 mph - N/A   Clear
1:53 AM 73.0 °F 52.0 °F 48% 29.83 in 10.0 mi SW 3.5 mph - N/A   Clear
2:53 AM 72.0 °F 51.1 °F 48% 29.83 in 10.0 mi NNE 6.9 mph - N/A   Clear
3:53 AM 73.0 °F 52.0 °F 48% 29.83 in 10.0 mi NNW 6.9 mph - N/A   Partly Cloudy
4:53 AM 69.1 °F 53.1 °F 57% 29.84 in 10.0 mi WNW 3.5 mph - 0.00 in   Partly Cloudy
5:53 AM 68.0 °F 51.1 °F 55% 29.85 in 10.0 mi NNW 5.8 mph - N/A   Clear
6:53 AM 66.0 °F 51.1 °F 59% 29.87 in 10.0 mi Calm Calm - N/A   Clear
7:53 AM 73.0 °F 52.0 °F 48% 29.88 in 10.0 mi North 3.5 mph - N/A   Clear
8:53 AM 75.9 °F 51.1 °F 42% 29.90 in 10.0 mi West 3.5 mph - N/A   Clear
9:53 AM 81.0 °F 50.0 °F 34% 29.89 in 10.0 mi Variable 3.5 mph - N/A   Clear
10:53 AM 82.9 °F 48.9 °F 31% 29.90 in 10.0 mi Variable 3.5 mph - N/A   Clear
11:53 AM 86.0 °F 46.0 °F 25% 29.88 in 10.0 mi ESE 3.5 mph - N/A   Clear
12:53 PM 88.0 °F 44.1 °F 22% 29.86 in 10.0 mi Variable 4.6 mph - N/A   Clear
1:53 PM 91.0 °F 45.0 °F 20% 29.83 in 10.0 mi North 5.8 mph - N/A   Clear
2:53 PM 90.0 °F 41.0 °F 18% 29.81 in 10.0 mi Variable 4.6 mph - N/A   Clear
3:53 PM 91.0 °F 37.9 °F 15% 29.79 in 10.0 mi Variable 4.6 mph - N/A   Clear
4:53 PM 91.0 °F 36.0 °F 14% 29.79 in 10.0 mi West 4.6 mph 17.3 mph N/A   Clear
5:53 PM 90.0 °F 37.0 °F 15% 29.79 in 10.0 mi SW 6.9 mph - N/A   Clear
6:53 PM 90.0 °F 37.0 °F 15% 29.78 in 10.0 mi South 4.6 mph - N/A   Clear
7:53 PM 88.0 °F 37.0 °F 16% 29.77 in 10.0 mi SSE 4.6 mph - N/A   Clear
8:53 PM 84.0 °F 37.9 °F 19% 29.77 in 10.0 mi South 4.6 mph - N/A   Clear
10:53 PM 80.1 °F 46.0 °F 30% 29.80 in 10.0 mi SSE 9.2 mph - N/A   Clear
11:53 PM 80.1 °F 46.0 °F 30% 29.81 in 10.0 mi SSE 11.5 mph - N/A   Mostly Cloudy